DMSP 5D-2 F13 DEB, 40436

Orbit data source: Space-Track

DMSP 5D-2 F13 DEB, 40436 is space debris in SSO originally from a launch on Fri, 24 Mar 1995 UTC launched from the Air Force Western Test Range (AFWTR). Debris objects in space refer to the collection of defunct objects orbiting the Earth. Examples of debris include non-operational satellites, rocket bodies, and fragments generated from explosions, collisions, or faulty payload assembly.

Loading next visibility...
Identifier
40436, 1995-015AN
Orbit
SSO
Country
Flag of USUS
Related business
Manufacturer
Unknown
Mission
Spacecraft
Bus & Motor
Unknown
Mass
Unknown
Launch date (UTC)
1995-03-24 (31 years ago)
Launch vehicle
Unknown
Launch site
Air Force Western Test Range (AFWTR)
Object type
Payload
Rocket body
Debris
Shape & HBR
Unknown shape, 0.1 m
Radar Cross Section
Small (<0.1 m²)

Expand to show TLE details & history
Last TLE update: 3 days ago

TLE from 3 days ago
0 DMSP 5D-2 F13 DEB
1 40436U 95015AN  26170.18486263  .00000224  00000-0  23979-3 0  9992
2 40436  98.8646 248.7495 0230505 122.0875 240.2879 13.71661663564556
Epoch: 2026-06-19T04:26Z
TLE epoch observation values (Epoch: 2026-06-19T04:26:12.131Z)
Latitude
-0.00002°
Longitude
-85.21852°
Altitude
1,083.599 km
Speed
7.267 km/s
True Right ascension
16h 34m 59s
True Declination
0° 00' 00"
Sunlit
Object was in full shadow at epoch
Visualization orbit readout
Latitude
Unknown
Longitude
Unknown
Altitude
Unknown
Speed
Unknown
Apparent Right ascension
Unknown
Apparent Declination
Unknown
Sunlit
N/A
Visualization observer readout
Local Sidereal Time
21:37:34
Azimuth
Unknown
Elevation
Unknown
Doppler factor
Unknown
Orbital elements
Apogee altitude
1,160.699 km
Perigee altitude
820.982 km
Semi-major axis
7,368.977 km
Eccentricity
0.02305
Inclination
98.8646°
RAAN
248.7495°
Arg. of periapsis
122.0875°
True anomaly
238.02668°
Mean anomaly
240.2879°
Eccentric anomaly
239.15402°
Mean motion
3.43109 °/min
Orbital period
104.92 mins
BSTAR
0.00023979

Documentation

Showing up to 5 results
|